Regional Weather Roundup
Issued by NWS

Home | Current Version | Previous Version | Text Only | Print | Product List | Glossary On
Versions: 1 2 3 4 5 6 7 8 9 10 11 12 13 14 15 16 17 18 19 20 21 22 23 24 25 26 27 28 29 30 31 32 33 34 35 36 37 38 39 40 41 42 43 44 45 46 47 48 49 50
044
ASUS43 KLSX 110410
RWRMO

WEATHER SUMMARY FOR MISSOURI
NATIONAL WEATHER SERVICE SPRINGFIELD MO
1000 PM CST WED FEB 10 2016

NOTE: "FAIR" INDICATES FEW OR NO CLOUDS BELOW 12,000 FEET WITH NO
       SIGNIFICANT WEATHER AND/OR OBSTRUCTIONS TO VISIBILITY.
       CURRENT SKY AND/OR WEATHER CONDITIONS ARE NOT AVAILABLE FOR
       CHILLICOTHE AND FARMINGTON.

MOZ001>031-035>038-043-044-053-054-110500-
...NORTHERN AND WESTERN MISSOURI...

CITY           SKY/WX    TMP DP  RH WIND       PRES   REMARKS
KANSAS CTY INT CLOUDY    28  22  78 E14       30.02R WCI  17
KANSAS C DTWN  CLEAR     30  22  72 NE13      30.03R WCI  20
LEE`S SUMMIT   CLEAR     28  20  71 E8        30.01S WCI  20
ST JOSEPH      CLOUDY    27  21  78 NE8       30.08R WCI  19
CHILLICOTHE      N/A     25  19  78 NE9       30.12R WCI  15
KIRKSVILLE     CLOUDY    21  16  81 NE9       30.14R WCI  11

$$
MOZ066>068-077>081-088>096-101>105-110500-
...SOUTHWEST MISSOURI...

CITY           SKY/WX    TMP DP  RH WIND       PRES   REMARKS
SPRINGFIELD    CLEAR     37  20  50 SE10      29.96F WCI  30
JOPLIN         CLEAR     41  24  51 E10       29.94S

$$
MOZ032>034-039>042-045>050-055>058-069>072-110500-
...CENTRAL MISSOURI...

CITY           SKY/WX    TMP DP  RH WIND       PRES   REMARKS
COLUMBIA       CLOUDY    23  19  85 E12       30.06F WCI  12
JEFFERSON CITY CLOUDY    25  19  78 E10       30.10S WCI  15
ROLLA          CLOUDY    23  17  78 E9        30.04S WCI  13
SEDALIA        PTCLDY    26  19  74 SE13      30.04F WCI  15
WHITEMAN AFB   PTCLDY    26  21  81 SE9       30.02S WCI  17
WARRENSBURG    CLOUDY    27  21  80 E6        30.03S WCI  20
OSAGE BEACH    CLEAR     25  16  68 E7        30.05S WCI  17

$$
MOZ051-052-059>065-110500-
...EAST CENTRAL MISSOURI...

CITY           SKY/WX    TMP DP  RH WIND       PRES   REMARKS
ST LOUIS INTL  CLOUDY    24  18  77 SE5       30.16R WCI  18
SPIRIT OF STL  CLOUDY    23  19  85 E3        30.15R
ST CHARLES     CLOUDY    22  19  89 E6        30.16S WCI  14

$$
MOZ072>076-082>087-097>100-106>115-110500-
...SOUTH CENTRAL AND SOUTHEAST MISSOURI...

CITY           SKY/WX    TMP DP  RH WIND       PRES   REMARKS
CAPE GIRARDEAU CLOUDY    24  19  81 E6        30.16F WCI  17
FARMINGTON     CLOUDY    23  17  78 SE3       30.10F
POPLAR BLUFF   CLEAR     25  17  72 E5        30.13F WCI  19
WEST PLAINS    CLEAR     29  10  45 E7        30.05F WCI  22

$$




USA.gov is the U.S. government's official web portal to all federal, state and local government web resources and services.